NOAA 16 DEB, 42401

Orbit data source: Space-Track

NOAA 16 DEB, 42401 is space debris in SSO originally from a launch on Thu, 21 Sep 2000 UTC launched from the Air Force Western Test Range (AFWTR). Debris objects in space refer to the collection of defunct objects orbiting the Earth. Examples of debris include non-operational satellites, rocket bodies, and fragments generated from explosions, collisions, or faulty payload assembly.

Loading next visibility...
Identifier
42401, 2000-055SV
Orbit
SSO
Country
Flag of USUS
Related business
Manufacturer
Unknown
Mission
Spacecraft
Bus & Motor
Unknown
Mass
Unknown
Launch date (UTC)
2000-09-21 (26 years ago)
Launch vehicle
Unknown
Launch site
Air Force Western Test Range (AFWTR)
Object type
Payload
Rocket body
Debris
Shape & HBR
Unknown shape, 0.1 m
Radar Cross Section
Medium (>0.1 m² and <1 m²)

Expand to show TLE details & history
Last TLE update: 3 days ago

TLE from 3 days ago
0 NOAA 16 DEB
1 42401U 00055SV  26170.46129233  .00006536  00000-0  13601-2 0  9990
2 42401  98.9509  48.1937 0044885  37.4536 322.9775 14.59773355538765
Epoch: 2026-06-19T11:04Z
TLE epoch observation values (Epoch: 2026-06-19T11:04:15.657Z)
Latitude
-0.00002°
Longitude
-25.56147°
Altitude
671.57 km
Speed
7.535 km/s
True Right ascension
03h 12m 46s
True Declination
0° 00' 00"
Sunlit
Object was in daylight at epoch
Visualization orbit readout
Latitude
Unknown
Longitude
Unknown
Altitude
Unknown
Speed
Unknown
Apparent Right ascension
Unknown
Apparent Declination
Unknown
Sunlit
N/A
Visualization observer readout
Local Sidereal Time
21:35:30
Azimuth
Unknown
Elevation
Unknown
Doppler factor
Unknown
Orbital elements
Apogee altitude
722.753 km
Perigee altitude
659.293 km
Semi-major axis
7,069.16 km
Eccentricity
0.00449
Inclination
98.9509°
RAAN
48.1937°
Arg. of periapsis
37.4536°
True anomaly
322.66641°
Mean anomaly
322.9775°
Eccentric anomaly
322.82209°
Mean motion
3.65167 °/min
Orbital period
98.59 mins
BSTAR
0.0013601
Loading maneuver chart data...
Computing Atmospheric mass density...
Loading historical data...
Loading historical data...
Loading historical data...
Loading historical data...
Loading historical data...
Loading historical data...
Loading historical data...

Documentation

Showing up to 5 results
|